{"data":{"norad_id":65017,"epoch":"2026-09-20T07:19:28.386624Z","epoch_age_seconds":141001,"freshness":"FRESH","line1":"1 65017U 25161C   26263.30518966  .00016468  00000+0  49745-3 0  9997","line2":"2 65017  53.1585 108.2949 0001522  87.7041 272.4135 15.34399998 65261","mean_motion":15.34399998,"eccentricity":0.0001522,"inclination_deg":53.1585,"raan_deg":108.2949,"arg_perigee_deg":87.7041,"mean_anomaly_deg":272.4135,"bstar":0.00049745,"rev_number":6526,"period_min":93.84775820366,"perigee_km":461.66207026606,"apogee_km":463.74442203699,"semimajor_km":6840.8402461515,"source":"CELESTRAK","updated_at":"2026-09-21T09:00:35.491729Z"}}